Location: Huntsville
(41.2590°N, 111.7678°W)
Time: 05:16:30
(UTC+00:00)

N. Korean satellite - Pass Details

Date: 11 December 2021
Orbit: 447 x 491 km, 97.3° (Epoch: 25 January)

Event Time Altitude Azimuth Distance (km) Brightness Sun altitude
Rises 12:27:31 0° 16° (NNE) 2,457 10.2 -24.6°
Enters shadow 12:28:04 - 17° (NNE) 2,220 10.0 -24.5°
Exits shadow 12:32:31 49° 73° (ENE) 586 7.2 -23.7°
Maximum altitude 12:32:54 53° 100° (E) 561 7.1 -23.6°
Drops below altitude 10° 12:36:12 10° 178° (S) 1,579 9.3 -23.0°
Sets 12:38:16 0° 183° (S) 2,452 10.2 -22.6°
